This is the latest recevied weather packets stored in our database for station/object KD8JAM. If no packets are shown the sender has not sent any weather packets the latest 10 day(s).
| Time | Temp. | Humidity | Pressure | Rain* | Wind** | Luminosity | Snow |
|---|---|---|---|---|---|---|---|
| 1777756838 | 11.11° C | 38% | 1014 hPa | 0 mm | - | 507 W/m² | - |
| 1777756533 | 10.56° C | 40% | 1013.9 hPa | 0 mm | - | 576 W/m² | - |
| 1777756230 | 11.11° C | 38% | 1013.8 hPa | 0 mm | - | 481 W/m² | - |
| 1777755927 | 11.11° C | 40% | 1014 hPa | 0 mm | - | 463 W/m² | - |
| 1777755624 | 10.56° C | 42% | 1014.3 hPa | 0 mm | - | 505 W/m² | - |
| 1777755321 | 10° C | 40% | 1014.1 hPa | 0 mm | - | 407 W/m² | - |
| 1777755018 | 10° C | 40% | 1014.4 hPa | 0 mm | - | 436 W/m² | - |
| 1777754715 | 10° C | 40% | 1014.3 hPa | 0 mm | - | 411 W/m² | - |
| 1777754413 | 10° C | 39% | 1014.5 hPa | 0 mm | - | 372 W/m² | - |
| 1777754109 | 10.56° C | 37% | 1014.4 hPa | 0 mm | - | 528 W/m² | - |
| 1777753806 | 10.56° C | 40% | 1014.6 hPa | 0 mm | - | 494 W/m² | - |
| 1777753503 | 11.11° C | 38% | 1014.5 hPa | 0 mm | - | 521 W/m² | - |
| 1777753201 | 11.11° C | 40% | 1014.6 hPa | 0 mm | - | 522 W/m² | - |
| 1777752896 | 11.11° C | 38% | 1014.8 hPa | 0 mm | - | 682 W/m² | - |
| 1777752593 | 10.56° C | 38% | 1014.8 hPa | 0 mm | - | 676 W/m² | - |
| 1777752289 | 11.11° C | 38% | 1014.7 hPa | 0 mm | - | 721 W/m² | - |
| 1777751987 | 10.56° C | 39% | 1014.8 hPa | 0 mm | - | 802 W/m² | - |
| 1777751684 | 10° C | 39% | 1014.7 hPa | 0 mm | - | 517 W/m² | - |
| 1777751380 | 10° C | 41% | 1014.8 hPa | 0 mm | - | 598 W/m² | - |
| 1777751077 | 10° C | 41% | 1015.1 hPa | 0 mm | - | 425 W/m² | - |
| 1777750773 | 10° C | 40% | 1015.3 hPa | 0 mm | - | 448 W/m² | - |
| 1777750470 | 10° C | 39% | 1015.3 hPa | 0 mm | - | 576 W/m² | - |
| 1777750165 | 10° C | 40% | 1015.1 hPa | 0 mm | - | 579 W/m² | - |
| 1777749863 | 10.56° C | 43% | 1015.2 hPa | 0 mm | - | 655 W/m² | - |
| 1777749560 | 10.56° C | 42% | 1015.3 hPa | 0 mm | - | 704 W/m² | - |
* Rain latest hour (hover to see other rain measurements)
** Current wind speed in m/s (hover to see current wind gust speed)